This is the latest recevied weather packets stored in our database for station/object DH1FR-13. If no packets are shown the sender has not sent any weather packets the latest 10 day(s).
| Time | Temp. | Humidity | Pressure | Rain* | Wind** | Luminosity | Snow |
|---|---|---|---|---|---|---|---|
| 1777395600 | 15.56° C | 40% | 1024.4 hPa | 0 mm | 0 m/s | - | - |
| 1777395001 | 15.56° C | 39% | 1024.4 hPa | 0 mm | 0 m/s | - | - |
| 1777394401 | 16.11° C | 37% | 1024.3 hPa | 0 mm | 0 m/s | - | - |
| 1777393805 | 16.67° C | 39% | 1024.4 hPa | 0 mm | 0 m/s | - | - |
| 1777393201 | 16.67° C | 39% | 1024.2 hPa | 0 mm | 0 m/s | - | - |
| 1777392601 | 16.67° C | 40% | 1024.1 hPa | 0 mm | 0.45 m/s, 69° | - | - |
| 1777392001 | 17.22° C | 40% | 1024.2 hPa | 0 mm | 0.45 m/s, 69° | - | - |
| 1777391401 | 16.67° C | 38% | 1024 hPa | 0 mm | 0.45 m/s, 68° | - | - |
| 1777390801 | 17.22° C | 39% | 1024.1 hPa | 0 mm | 0.45 m/s, 68° | - | - |
| 1777390201 | 16.67° C | 37% | 1024.3 hPa | 0 mm | 0 m/s | - | - |
| 1777389601 | 17.22° C | 38% | 1024.2 hPa | 0 mm | 0 m/s | - | - |
| 1777389001 | 17.78° C | 39% | 1024.2 hPa | 0 mm | 0 m/s | - | - |
| 1777388401 | 17.78° C | 38% | 1024.2 hPa | 0 mm | 0 m/s | - | - |
| 1777387801 | 18.33° C | 37% | 1024.1 hPa | 0 mm | 0 m/s | - | - |
| 1777387201 | 17.78° C | 37% | 1024 hPa | 0 mm | 0.45 m/s, 64° | - | - |
| 1777386601 | 17.78° C | 35% | 1024.1 hPa | 0 mm | 0 m/s | - | - |
| 1777386001 | 18.33° C | 36% | 1024 hPa | 0 mm | 0.45 m/s, 79° | - | - |
| 1777385401 | 18.33° C | 40% | 1024.1 hPa | 0 mm | 0 m/s | - | - |
| 1777384800 | 18.33° C | 38% | 1024.2 hPa | 0 mm | 0 m/s | - | - |
| 1777384201 | 18.33° C | 40% | 1024.2 hPa | 0 mm | 0 m/s | - | - |
| 1777383601 | 18.33° C | 38% | 1024.2 hPa | 0 mm | 0.45 m/s, 67° | - | - |
| 1777383001 | 18.33° C | 37% | 1024.4 hPa | 0 mm | 0.45 m/s, 148° | - | - |
| 1777382401 | 17.78° C | 38% | 1024.3 hPa | 0 mm | 0.45 m/s, 88° | - | - |
| 1777381801 | 17.22° C | 39% | 1024.3 hPa | 0 mm | 0.45 m/s, 88° | - | - |
| 1777381201 | 17.78° C | 38% | 1024.3 hPa | 0 mm | 0.45 m/s, 85° | - | - |
* Rain latest hour (hover to see other rain measurements)
** Current wind speed in m/s (hover to see current wind gust speed)